User: anonymous   Login
Location: Newark
(41.8922°N, 9.0050°E)
Time: 22:53:29
(UTC+00:00)
Language:

Envisat - Orbit

View from above orbital plane
View from above orbital plane
View from above satellite
View from above satellite

Ground track
Ground track

The orbit data is extracted from the following two-line orbital elements,

1 27386U 02009A   20050.80696073  .00000016  00000-0  18657-4 0  9991
2 27386  98.1399  64.0756 0001188  93.7697  79.0245 14.37971789941562
Epoch (UTC): 19 February 2020 19:22:01
Eccentricity: 0.0001188
inclination: 98.1399°
perigee height: 764 km
apogee height: 766 km
right ascension of ascending node: 64.0756°
argument of perigee: 93.7697°
revolutions per day: 14.37971789
mean anomaly at epoch: 79.0245°
orbit number at epoch: 94156

The dashed part of the orbit path shows where the satellite is in the earth's shadow,  

DLR